Ireland West Airport Knock, Ireland

11:05 AM IST on June 28, 2017 (GMT +0100)
Connaught

Weather History for EIKN - August, 2012

Change the Weather History Date:

Friday, August 17, 2012

  Actual Average Record
Temperature  
Mean Temperature 61 °F -  
Max Temperature 67 °F - - ()
Min Temperature 55 °F - - ()
Degree Days  
Heating Degree Days 4    
Growing Degree Days 11 (Base 50)    
Moisture  
Dew Point 56 °F    
Average Humidity 81    
Maximum Humidity 100    
Minimum Humidity 60    
Precipitation  
Precipitation 0.01 in - - ()
Sea Level Pressure  
Sea Level Pressure 29.63 in    
Wind  
Wind Speed 6 mph ()    
Max Wind Speed 9 mph    
Max Gust Speed -    
Visibility 5.2 miles    
Events Fog , Rain    
T = Trace of Precipitation, MM = Missing Value Source: Averaged Metar Reports

Daily Weather History Graph

Daily Weather History Graph

Search for Another Location

Airport or City:

Trip Planner

Search our weather history database for the weather conditions in past years. The results will help you decide how hot, cold, wet, or windy it might be!

Date:

Astronomy

Aug. 17, 2012 Rise Set
Actual Time 6:17 AM IST 8:59 PM IST
Civil Twilight 5:37 AM IST 9:39 PM IST
Nautical Twilight 4:45 AM IST 10:30 PM IST
Astronomical Twilight 3:40 AM IST 11:34 PM IST
Moon 6:13 AM IST (8/17) 8:21 PM IST (8/17)
Length of Visible Light 16h 01m
Length of Day
14h 42m
Waning Crescent, 0% of the Moon is Illuminated
Aug 17
Waning Crescent
Aug 17
New
Aug 24
First Quarter
Aug 31
Full
Sep 8
Last Quarter

Hourly Weather History & Observations

Time (IST) Temp. Dew Point Humidity Pressure Visibility Wind Dir Wind Speed Gust Speed Precip Events Conditions
1:00 AM 56 °F 56 °F 100% 29.61 in - ESE 6.7 mph - -  
6:00 AM 57.2 °F 57.2 °F 100% 29.56 in 0.4 mi West 6.9 mph - N/A Fog Drizzle
7:00 AM 55 °F 55 °F 100% 29.59 in 0 mi WNW 8.9 mph - - Rain Light Drizzle
7:00 AM 55.4 °F 55.4 °F 100% 29.56 in 0.2 mi WNW 8.1 mph - N/A Fog Light Drizzle
7:30 AM 55.4 °F 55.4 °F 100% 29.59 in 1.9 mi WNW 9.2 mph - N/A   Light Drizzle
8:00 AM 55.4 °F 55.4 °F 100% 29.59 in 3.7 mi WNW 5.8 mph - N/A   Mostly Cloudy
8:30 AM 55.4 °F 55.4 °F 100% 29.59 in 3.7 mi West 6.9 mph - N/A   Mostly Cloudy
9:00 AM 55.4 °F 55.4 °F 100% 29.62 in 6.2 mi WSW 5.8 mph - N/A   Mostly Cloudy
9:30 AM 57.2 °F 55.4 °F 94% 29.62 in 6.2 mi West 4.6 mph - N/A   Mostly Cloudy
10:00 AM 57.2 °F 55.4 °F 94% 29.62 in 6.2 mi WSW 3.5 mph - N/A   Mostly Cloudy
10:30 AM 57.2 °F 55.4 °F 94% 29.62 in 6.2 mi West 2.3 mph - N/A   Mostly Cloudy
11:00 AM 60.8 °F 57.2 °F 88% 29.62 in 6.2 mi SSW 4.6 mph - N/A   Mostly Cloudy
11:30 AM 60.8 °F 55.4 °F 82% 29.62 in 6.2 mi SSW 4.6 mph - N/A   Mostly Cloudy
12:00 PM 62.6 °F 55.4 °F 77% 29.65 in 6.2 mi South 6.9 mph - N/A   Mostly Cloudy
12:30 PM 62.6 °F 55.4 °F 77% 29.65 in 6.2 mi SW 4.6 mph - N/A   Mostly Cloudy
1:00 PM 64 °F 54 °F 63% 29.66 in 31 mi SW 4.5 mph - -   Partly Cloudy
1:00 PM 64.4 °F 55.4 °F 73% 29.65 in 6.2 mi SW 4.6 mph - N/A   Mostly Cloudy
1:30 PM 64.4 °F 55.4 °F 73% 29.65 in 6.2 mi SW 4.6 mph - N/A   Mostly Cloudy
2:00 PM 66.2 °F 55.4 °F 68% 29.65 in 6.2 mi South 4.6 mph - N/A   Mostly Cloudy
2:30 PM 66.2 °F 55.4 °F 68% 29.65 in 6.2 mi South 5.8 mph - N/A   Mostly Cloudy
3:00 PM 66.2 °F 53.6 °F 64% 29.65 in 6.2 mi SSE 5.8 mph - N/A   Mostly Cloudy
3:30 PM 66.2 °F 53.6 °F 64% 29.65 in 6.2 mi South 5.8 mph - N/A   Mostly Cloudy
4:00 PM 66.2 °F 55.4 °F 68% 29.65 in 6.2 mi SE 6.9 mph - N/A   Mostly Cloudy
4:30 PM 68.0 °F 53.6 °F 60% 29.65 in 6.2 mi South 5.8 mph - N/A   Mostly Cloudy
5:00 PM 66.2 °F 55.4 °F 68% 29.65 in 6.2 mi SE 9.2 mph - N/A   Mostly Cloudy
5:30 PM 66.2 °F 55.4 °F 68% 29.62 in 6.2 mi ESE 5.8 mph - N/A   Scattered Clouds
6:00 PM 66.2 °F 55.4 °F 68% 29.65 in 6.2 mi ESE 9.2 mph - N/A   Mostly Cloudy
6:30 PM 64.4 °F 57.2 °F 77% 29.65 in 6.2 mi SE 6.9 mph - N/A   Mostly Cloudy
7:00 PM 65 °F 58 °F 72% 29.63 in 31 mi ESE 4.5 mph - -   Mostly Cloudy
7:00 PM 64.4 °F 59.0 °F 83% 29.62 in 6.2 mi ESE 4.6 mph - N/A   Mostly Cloudy